COSMOS 2547

Last updated on Sat Jun 27 2026 00:02:56 GMT+0000 (Coordinated Universal Time)

1 46805U 20075A 26177.32991645 .00000106 00000+0 00000+0 0 9994 2 46805 64.5999 192.1702 0009406 239.7382 120.2220 2.13100201 44100
UTC large
Height (km)
Speed (km/s)
/
Latitude / Longitude
Inclination (degrees)
Orbital Period (minutes)
Azimuth
Elevation
Range (km)
Doppler Factor

Next 0 passes for location: London (51.5072 / 0.1276)

No passes found over London.
COSMOS 2547